,,,PA_Meas_PMT16A,,PR_Meas_QMR101_102,,RH_Meas_QMH101,,SR_Meas_QMS101,,TA_Meas_QMH101,,GenWind,,GenWind,
date,time,status,PA,status,PR,status,RH,status,SR,status,TA,status,DirAvg,status,SpdAvg,
2012-05-22, 00:00:04,VALID,1002.67,VALID,0,VALID,85.6876,VALID,0,VALID,25.9038,VALID,15,VALID,1.3125,
2012-05-22, 00:01:04,VALID,1002.62,VALID,0,VALID,85.7791,VALID,0,VALID,25.9642,VALID,27,VALID,0.846875,
2012-05-22, 00:02:04,VALID,1002.55,VALID,0,VALID,85.1078,VALID,0,VALID,25.9427,VALID,14,VALID,0.979688,
2012-05-22, 00:03:04,VALID,1002.52,VALID,0,VALID,85.2375,VALID,0,VALID,25.9622,VALID,50,VALID,0.568359,
2012-05-22, 00:04:04,VALID,1002.49,VALID,0,VALID,85.268,VALID,0,VALID,26.0012,VALID,56,VALID,0.425,
2012-05-22, 00:05:04,VALID,1002.47,VALID,0,VALID,85.2909,VALID,0,VALID,25.9622,VALID,47,VALID,0.501172,
2012-05-22, 00:06:04,VALID,1002.51,VALID,0,VALID,85.2451,VALID,0,VALID,25.9427,VALID,60,VALID,0.595703,
2012-05-22, 00:07:04,VALID,1002.49,VALID,0,VALID,84.9018,VALID,0,VALID,25.9232,VALID,14,VALID,0.916016,
2012-05-22, 00:08:04,VALID,1002.5,VALID,0,VALID,84.734,VALID,0,VALID,25.9232,VALID,360,VALID,0.869922,
2012-05-22, 00:09:04,VALID,1002.5,VALID,0,VALID,84.8713,VALID,0.0815089,VALID,25.9408,VALID,26,VALID,0.888281,
2012-05-22, 00:10:04,VALID,1002.5,VALID,0,VALID,84.4593,VALID,0.0815089,VALID,25.9408,VALID,24,VALID,0.571484,
2012-05-22, 00:11:04,VALID,1002.49,VALID,0,VALID,84.3983,VALID,0.0815089,VALID,25.9213,VALID,33,VALID,0.370313,
2012-05-22, 00:12:04,VALID,1002.46,VALID,0,VALID,84.2076,VALID,0.0815089,VALID,25.9408,VALID,76,VALID,1.3043,
2012-05-22, 00:13:04,VALID,1002.47,VALID,0,VALID,84.0626,VALID,0.0815089,VALID,25.9213,VALID,27,VALID,0.634375,
2012-05-22, 00:14:04,VALID,1002.43,VALID,0,VALID,83.9635,VALID,0.0815089,VALID,25.9408,VALID,22,VALID,0.525781,
2012-05-22, 00:15:04,VALID,1002.45,VALID,0,VALID,83.9711,VALID,0,VALID,25.9408,VALID,70,VALID,1.06445,
2012-05-22, 00:16:04,VALID,1002.5,VALID,0,VALID,84.0626,VALID,0.0815089,VALID,25.9193,VALID,97,VALID,0.772656,
2012-05-22, 00:17:04,VALID,1002.48,VALID,0,VALID,84.2152,VALID,0.0815089,VALID,25.9213,VALID,57,VALID,0.559766,
2012-05-22, 00:18:04,VALID,1002.5,VALID,0,VALID,84.1313,VALID,0.0815089,VALID,25.9018,VALID,98,VALID,1.68711,
2012-05-22, 00:19:04,VALID,1002.52,VALID,0,VALID,84.3907,VALID,0.0815089,VALID,25.9018,VALID,100,VALID,0.951563,
2012-05-22, 00:20:04,VALID,1002.55,VALID,0,VALID,84.5814,VALID,0.0815089,VALID,25.8823,VALID,98,VALID,0.670703,
2012-05-22, 00:21:04,VALID,1002.53,VALID,0,VALID,84.7797,VALID,0.0815089,VALID,25.8414,VALID,95,VALID,1.13516,
2012-05-22, 00:22:04,VALID,1002.57,VALID,0,VALID,85.062,VALID,0.0815089,VALID,25.8414,VALID,106,VALID,1.34883,
2012-05-22, 00:23:04,VALID,1002.58,VALID,0,VALID,85.3138,VALID,0.0815089,VALID,25.8044,VALID,104,VALID,0.980859,
2012-05-22, 00:24:04,VALID,1002.6,VALID,0,VALID,85.4892,VALID,0.0815089,VALID,25.7655,VALID,130,VALID,1.06094,
2012-05-22, 00:25:04,VALID,1002.61,VALID,0,VALID,85.7791,VALID,0.0815089,VALID,25.7246,VALID,120,VALID,1.05156,
2012-05-22, 00:26:04,VALID,1002.62,VALID,0,VALID,85.8859,VALID,0.0815089,VALID,25.7071,VALID,107,VALID,0.930469,
2012-05-22, 00:27:04,VALID,1002.65,VALID,0,VALID,85.9927,VALID,0.0815089,VALID,25.6876,VALID,105,VALID,0.451172,
2012-05-22, 00:28:04,VALID,1002.64,VALID,0,VALID,85.9699,VALID,0.0815089,VALID,25.6681,VALID,107,VALID,0.808984,
2012-05-22, 00:29:04,VALID,1002.65,VALID,0,VALID,86.0538,VALID,0.0815089,VALID,25.6681,VALID,98,VALID,0.548047,
2012-05-22, 00:30:04,VALID,1002.66,VALID,0,VALID,86.1529,VALID,0.0815089,VALID,25.6486,VALID,95,VALID,0.508203,
2012-05-22, 00:31:04,VALID,1002.65,VALID,0,VALID,86.3742,VALID,0.0815089,VALID,25.6292,VALID,74,VALID,0.751172,
2012-05-22, 00:32:04,VALID,1002.62,VALID,0,VALID,86.4047,VALID,0.0815089,VALID,25.5902,VALID,96,VALID,0.385156,
2012-05-22, 00:33:04,VALID,1002.61,VALID,0,VALID,86.3894,VALID,0.0815089,VALID,25.5902,VALID,104,VALID,0.271484,
2012-05-22, 00:34:04,VALID,1002.6,VALID,0,VALID,86.275,VALID,0.0815089,VALID,25.6097,VALID,62,VALID,0.982813,
2012-05-22, 00:35:04,VALID,1002.6,VALID,0,VALID,86.3894,VALID,0,VALID,25.5902,VALID,85,VALID,0.223438,
2012-05-22, 00:36:04,VALID,1002.61,VALID,0,VALID,86.3589,VALID,0.0815089,VALID,25.5688,VALID,85,VALID,0.109375,
2012-05-22, 00:37:04,VALID,1002.58,VALID,0,VALID,86.5039,VALID,0.0815089,VALID,25.5707,VALID,85,VALID,0.426562,
2012-05-22, 00:38:04,VALID,1002.57,VALID,0,VALID,86.6031,VALID,0.0815089,VALID,25.5707,VALID,85,VALID,0.114453,
2012-05-22, 00:39:04,VALID,1002.56,VALID,0,VALID,86.7785,VALID,0,VALID,25.5532,VALID,84,VALID,0.119531,
2012-05-22, 00:40:04,VALID,1002.56,VALID,0,VALID,86.9006,VALID,0,VALID,25.4928,VALID,75,VALID,0.369141,
2012-05-22, 00:41:04,VALID,1002.54,VALID,0,VALID,86.9235,VALID,0,VALID,25.4928,VALID,52,VALID,0.575,
2012-05-22, 00:42:04,VALID,1002.54,VALID,0,VALID,86.9845,VALID,0,VALID,25.4948,VALID,49,VALID,0.613281,
2012-05-22, 00:43:04,VALID,1002.57,VALID,0,VALID,87.0989,VALID,0,VALID,25.4344,VALID,73,VALID,0.699609,
2012-05-22, 00:44:04,VALID,1002.59,VALID,0,VALID,87.3202,VALID,0,VALID,25.4363,VALID,75,VALID,0.409375,
2012-05-22, 00:45:04,VALID,1002.57,VALID,0,VALID,87.4193,VALID,0,VALID,25.4169,VALID,80,VALID,0.0945313,
2012-05-22, 00:46:04,VALID,1002.6,VALID,0,VALID,87.5414,VALID,0,VALID,25.3974,VALID,76,VALID,0.339844,
2012-05-22, 00:47:04,VALID,1002.6,VALID,0,VALID,87.5795,VALID,0,VALID,25.3584,VALID,74,VALID,0.376563,
2012-05-22, 00:48:04,VALID,1002.61,VALID,0,VALID,87.7245,VALID,0,VALID,25.339,VALID,68,VALID,0.248828,
2012-05-22, 00:49:04,VALID,1002.61,VALID,0,VALID,87.755,VALID,0,VALID,25.339,VALID,55,VALID,0.557813,
2012-05-22, 00:50:04,VALID,1002.57,VALID,0,VALID,87.6329,VALID,0,VALID,25.339,VALID,5,VALID,0.924219,
2012-05-22, 00:51:04,VALID,1002.57,VALID,0,VALID,87.7321,VALID,0,VALID,25.3584,VALID,6,VALID,0.684766,
2012-05-22, 00:52:04,VALID,1002.52,VALID,0,VALID,87.7016,VALID,0,VALID,25.3584,VALID,1,VALID,0.896484,
2012-05-22, 00:53:04,VALID,1002.48,VALID,0,VALID,87.6253,VALID,0,VALID,25.3779,VALID,7,VALID,0.823828,
2012-05-22, 00:54:04,VALID,1002.45,VALID,0,VALID,87.427,VALID,0,VALID,25.3974,VALID,11,VALID,1.56602,
2012-05-22, 00:55:04,VALID,1002.43,VALID,0,VALID,87.1828,VALID,0,VALID,25.3955,VALID,17,VALID,0.564844,
2012-05-22, 00:56:04,VALID,1002.41,VALID,0,VALID,86.9464,VALID,0,VALID,25.4363,VALID,21,VALID,0.852344,
2012-05-22, 00:57:04,VALID,1002.42,VALID,0,VALID,86.8701,VALID,0,VALID,25.4558,VALID,9,VALID,0.7625,
2012-05-22, 00:58:04,VALID,1002.4,VALID,0,VALID,86.4581,VALID,0,VALID,25.4753,VALID,6,VALID,0.580078,
2012-05-22, 00:59:04,VALID,1002.44,VALID,0,VALID,85.9241,VALID,0,VALID,25.5142,VALID,360,VALID,0.911328,
2012-05-22, 01:00:04,VALID,1002.45,VALID,0,VALID,85.6723,VALID,0,VALID,25.5337,VALID,20,VALID,1.01797,
2012-05-22, 01:01:04,VALID,1002.48,VALID,0,VALID,85.9165,VALID,0,VALID,25.5921,VALID,19,VALID,0.384375,
2012-05-22, 01:02:04,VALID,1002.49,VALID,0,VALID,85.123,VALID,0,VALID,25.5921,VALID,357,VALID,0.412891,
2012-05-22, 01:03:04,VALID,1002.52,VALID,0,VALID,85.1993,VALID,0,VALID,25.6311,VALID,358,VALID,0.336328,
2012-05-22, 01:04:04,VALID,1002.54,VALID,0,VALID,85.0391,VALID,0,VALID,25.6486,VALID,4,VALID,0.453516,
2012-05-22, 01:05:04,VALID,1002.55,VALID,0,VALID,84.1923,VALID,0,VALID,25.7109,VALID,10,VALID,0.859375,
2012-05-22, 01:06:04,VALID,1002.54,VALID,0,VALID,83.9635,VALID,0,VALID,25.748,VALID,6,VALID,0.943359,
2012-05-22, 01:07:04,VALID,1002.55,VALID,0,VALID,83.6812,VALID,0,VALID,25.8064,VALID,8,VALID,1.14844,
2012-05-22, 01:08:04,VALID,1002.52,VALID,0,VALID,83.788,VALID,0,VALID,25.8239,VALID,1,VALID,0.2125,
2012-05-22, 01:09:04,VALID,1002.51,VALID,0,VALID,83.8643,VALID,0,VALID,25.8434,VALID,1,VALID,0.237891,
2012-05-22, 01:10:04,VALID,1002.51,VALID,0,VALID,83.9787,VALID,0,VALID,25.8453,VALID,38,VALID,0.305078,
2012-05-22, 01:11:04,VALID,1002.48,VALID,0,VALID,83.7575,VALID,0,VALID,25.8434,VALID,96,VALID,0.502734,
2012-05-22, 01:12:04,VALID,1002.45,VALID,0,VALID,83.5439,VALID,0,VALID,25.8863,VALID,91,VALID,1.18984,
2012-05-22, 01:13:04,VALID,1002.44,VALID,0,VALID,83.7422,VALID,0,VALID,25.8434,VALID,85,VALID,0.685156,
2012-05-22, 01:14:04,VALID,1002.47,VALID,0,VALID,83.6507,VALID,0,VALID,25.8648,VALID,74,VALID,0.948828,
2012-05-22, 01:15:04,VALID,1002.46,VALID,0,VALID,83.4981,VALID,0,VALID,25.8453,VALID,51,VALID,1.0125,
2012-05-22, 01:16:04,VALID,1002.54,VALID,0,VALID,83.4447,VALID,0,VALID,25.8453,VALID,60,VALID,0.498047,
2012-05-22, 01:17:04,VALID,1002.58,VALID,0,VALID,83.6736,VALID,0,VALID,25.8453,VALID,65,VALID,0.601953,
2012-05-22, 01:18:04,VALID,1002.58,VALID,0,VALID,83.582,VALID,0,VALID,25.8259,VALID,87,VALID,0.966016,
2012-05-22, 01:19:04,VALID,1002.64,VALID,0,VALID,83.7041,VALID,0,VALID,25.8259,VALID,103,VALID,0.746094,
2012-05-22, 01:20:04,VALID,1002.65,VALID,0,VALID,83.5439,VALID,0,VALID,25.785,VALID,64,VALID,0.596094,
2012-05-22, 01:21:04,VALID,1002.66,VALID,0,VALID,83.6507,VALID,0,VALID,25.8064,VALID,71,VALID,0.417578,
2012-05-22, 01:22:04,VALID,1002.68,VALID,0,VALID,83.7727,VALID,0,VALID,25.785,VALID,70,VALID,0.281641,
2012-05-22, 01:23:04,VALID,1002.65,VALID,0,VALID,83.7804,VALID,0,VALID,25.8064,VALID,70,VALID,0.0113281,
2012-05-22, 01:24:04,VALID,1002.65,VALID,0,VALID,83.8795,VALID,0,VALID,25.7869,VALID,70,VALID,0.447266,
2012-05-22, 01:25:04,VALID,1002.65,VALID,0,VALID,83.6278,VALID,0,VALID,25.7265,VALID,70,VALID,0.214062,
2012-05-22, 01:26:04,VALID,1002.62,VALID,0,VALID,84.0474,VALID,0,VALID,25.7674,VALID,70,VALID,0,
2012-05-22, 01:27:04,VALID,1002.63,VALID,0,VALID,83.9024,VALID,0,VALID,25.7285,VALID,70,VALID,0.0503906,
2012-05-22, 01:28:04,VALID,1002.62,VALID,0,VALID,83.9177,VALID,0,VALID,25.7071,VALID,70,VALID,0,
2012-05-22, 01:29:04,VALID,1002.59,VALID,0,VALID,83.849,VALID,0,VALID,25.7071,VALID,70,VALID,0.00429688,
2012-05-22, 01:30:04,VALID,1002.58,VALID,0,VALID,84.116,VALID,0,VALID,25.7285,VALID,70,VALID,0,
2012-05-22, 01:31:04,VALID,1002.53,VALID,0,VALID,84.0016,VALID,0,VALID,25.7499,VALID,70,VALID,0,
2012-05-22, 01:32:04,VALID,1002.54,VALID,0,VALID,84.3449,VALID,0,VALID,25.7304,VALID,68,VALID,0.021875,
2012-05-22, 01:33:04,VALID,1002.5,VALID,0,VALID,84.0321,VALID,0,VALID,25.709,VALID,31,VALID,0.35,
2012-05-22, 01:34:04,VALID,1002.51,VALID,0,VALID,84.8789,VALID,0,VALID,25.7499,VALID,31,VALID,0.191797,
2012-05-22, 01:35:04,VALID,1002.46,VALID,0,VALID,84.8866,VALID,0,VALID,25.7285,VALID,31,VALID,0.41875,
2012-05-22, 01:36:04,VALID,1002.44,VALID,0,VALID,84.9018,VALID,0,VALID,25.709,VALID,31,VALID,0.429297,
2012-05-22, 01:37:04,VALID,1002.43,VALID,0,VALID,85.0544,VALID,0,VALID,25.7109,VALID,29,VALID,0.570703,
2012-05-22, 01:38:04,VALID,1002.42,VALID,0,VALID,83.4828,VALID,0,VALID,25.6506,VALID,10,VALID,1.14805,
2012-05-22, 01:39:04,VALID,1002.41,VALID,0,VALID,83.4142,VALID,0,VALID,25.6895,VALID,14,VALID,0.742188,
2012-05-22, 01:40:04,VALID,1002.43,VALID,0,VALID,83.8185,VALID,0,VALID,25.7265,VALID,15,VALID,0.604297,
2012-05-22, 01:41:04,VALID,1002.45,VALID,0,VALID,83.9101,VALID,0,VALID,25.7674,VALID,15,VALID,0.640625,
2012-05-22, 01:42:04,VALID,1002.42,VALID,0,VALID,83.5286,VALID,0,VALID,25.7674,VALID,17,VALID,0.317969,
2012-05-22, 01:43:04,VALID,1002.41,VALID,0,VALID,83.5362,VALID,0,VALID,25.8083,VALID,17,VALID,0.184766,
2012-05-22, 01:44:04,VALID,1002.4,VALID,0,VALID,83.4752,VALID,0,VALID,25.7869,VALID,17,VALID,0.003125,
2012-05-22, 01:45:04,VALID,1002.37,VALID,0,VALID,84.1618,VALID,0,VALID,25.7869,VALID,17,VALID,0.183594,
2012-05-22, 01:46:04,VALID,1002.36,VALID,0,VALID,84.3525,VALID,0,VALID,25.7674,VALID,17,VALID,0.328125,
2012-05-22, 01:47:04,VALID,1002.33,VALID,0,VALID,83.9635,VALID,0,VALID,25.7694,VALID,74,VALID,0.391406,
2012-05-22, 01:48:04,VALID,1002.31,VALID,0,VALID,84.1084,VALID,0,VALID,25.748,VALID,74,VALID,0.247266,
2012-05-22, 01:49:04,VALID,1002.27,VALID,0,VALID,84.0855,VALID,0,VALID,25.7304,VALID,45,VALID,0.197656,
2012-05-22, 01:50:04,VALID,1002.27,VALID,0,VALID,84.0703,VALID,0,VALID,25.7285,VALID,56,VALID,0.598047,
2012-05-22, 01:51:04,VALID,1002.28,VALID,0,VALID,83.7956,VALID,0,VALID,25.7285,VALID,56,VALID,0.353516,
2012-05-22, 01:52:04,VALID,1002.25,VALID,0,VALID,83.6202,VALID,0,VALID,25.7071,VALID,56,VALID,0.00585938,
2012-05-22, 01:53:04,VALID,1002.25,VALID,0,VALID,83.9635,VALID,0,VALID,25.7499,VALID,56,VALID,0.248047,
2012-05-22, 01:54:04,VALID,1002.23,VALID,0,VALID,83.7498,VALID,0,VALID,25.7265,VALID,56,VALID,0.335156,
2012-05-22, 01:55:04,VALID,1002.22,VALID,0,VALID,82.9107,VALID,0,VALID,25.746,VALID,60,VALID,0.351172,
2012-05-22, 01:56:04,VALID,1002.18,VALID,0,VALID,83.3455,VALID,0,VALID,25.7655,VALID,60,VALID,0.226563,
2012-05-22, 01:57:04,VALID,1002.14,VALID,0,VALID,83.0175,VALID,0,VALID,25.7655,VALID,60,VALID,0.351563,
2012-05-22, 01:58:04,VALID,1002.14,VALID,0,VALID,82.7199,VALID,0,VALID,25.7655,VALID,60,VALID,0.219531,
2012-05-22, 01:59:04,VALID,1002.11,VALID,0,VALID,82.7047,VALID,0,VALID,25.7655,VALID,60,VALID,0.284766,
2012-05-22, 02:00:04,VALID,1002.1,VALID,0,VALID,83.2387,VALID,0,VALID,25.785,VALID,66,VALID,0.406641,
2012-05-22, 02:01:04,VALID,1002.09,VALID,0,VALID,82.9412,VALID,0,VALID,25.8044,VALID,66,VALID,0.371094,
2012-05-22, 02:02:04,VALID,1002.09,VALID,0,VALID,83.0632,VALID,0,VALID,25.8044,VALID,66,VALID,0,
2012-05-22, 02:03:04,VALID,1002.06,VALID,0,VALID,83.2921,VALID,0.0815089,VALID,25.8044,VALID,66,VALID,0,
2012-05-22, 02:04:04,VALID,1002.03,VALID,0,VALID,83.2921,VALID,0,VALID,25.783,VALID,65,VALID,0.344531,
2012-05-22, 02:05:04,VALID,1002.06,VALID,0,VALID,83.3989,VALID,0,VALID,25.8044,VALID,61,VALID,0.179297,
2012-05-22, 02:06:04,VALID,1001.99,VALID,0,VALID,83.3608,VALID,0,VALID,25.8239,VALID,61,VALID,0.384375,
2012-05-22, 02:07:04,VALID,1001.95,VALID,0,VALID,83.4447,VALID,0,VALID,25.8434,VALID,61,VALID,0.162891,
2012-05-22, 02:08:04,VALID,1001.93,VALID,0,VALID,83.4752,VALID,0.0815089,VALID,25.8629,VALID,61,VALID,0.348437,
2012-05-22, 02:09:04,VALID,1001.9,VALID,0,VALID,84.0245,VALID,0.0815089,VALID,25.8414,VALID,60,VALID,0.310547,
2012-05-22, 02:10:04,VALID,1001.86,VALID,0,VALID,83.7422,VALID,0.0815089,VALID,25.8629,VALID,59,VALID,0.301172,
2012-05-22, 02:11:04,VALID,1001.85,VALID,0,VALID,84.2762,VALID,0.0815089,VALID,25.8629,VALID,59,VALID,0.225781,
2012-05-22, 02:12:04,VALID,1001.84,VALID,0,VALID,84.4136,VALID,0,VALID,25.8629,VALID,59,VALID,0.378906,
2012-05-22, 02:13:04,VALID,1001.86,VALID,0,VALID,84.6424,VALID,0.0815089,VALID,25.8414,VALID,59,VALID,0.110937,
2012-05-22, 02:14:04,VALID,1001.85,VALID,0,VALID,84.6424,VALID,0,VALID,25.8843,VALID,57,VALID,0.436719,
2012-05-22, 02:15:04,VALID,1001.87,VALID,0,VALID,84.7797,VALID,0,VALID,25.9038,VALID,22,VALID,0.373437,
2012-05-22, 02:16:04,VALID,1001.88,VALID,0,VALID,84.5509,VALID,0.0815089,VALID,25.9232,VALID,18,VALID,0.386719,
2012-05-22, 02:17:04,VALID,1001.87,VALID,0,VALID,84.6882,VALID,0,VALID,25.9408,VALID,18,VALID,0.304688,
2012-05-22, 02:18:04,VALID,1001.86,VALID,0,VALID,84.6653,VALID,0,VALID,25.9797,VALID,18,VALID,0.216797,
2012-05-22, 02:19:04,VALID,1001.89,VALID,0,VALID,84.6577,VALID,0.0815089,VALID,26.0187,VALID,18,VALID,0.25,
2012-05-22, 02:20:04,VALID,1001.9,VALID,0,VALID,84.4517,VALID,0.0815089,VALID,26.0187,VALID,18,VALID,0,
2012-05-22, 02:21:04,VALID,1001.9,VALID,0,VALID,84.3144,VALID,0,VALID,26.0381,VALID,18,VALID,0.00234375,
2012-05-22, 02:22:04,VALID,1001.9,VALID,0,VALID,84.3983,VALID,0.0815089,VALID,26.0791,VALID,18,VALID,0.219531,
2012-05-22, 02:23:04,VALID,1001.89,VALID,0,VALID,84.467,VALID,0.0815089,VALID,26.0771,VALID,18,VALID,0,
2012-05-22, 02:24:04,VALID,1001.9,VALID,0,VALID,84.4593,VALID,0,VALID,26.0771,VALID,18,VALID,0.528906,
2012-05-22, 02:25:04,VALID,1001.91,VALID,0,VALID,84.2686,VALID,0,VALID,26.0966,VALID,18,VALID,0.150391,
2012-05-22, 02:26:04,VALID,1001.91,VALID,0,VALID,84.5204,VALID,0,VALID,26.0966,VALID,19,VALID,0.226563,
2012-05-22, 02:27:04,VALID,1001.94,VALID,0,VALID,84.3373,VALID,0,VALID,26.118,VALID,19,VALID,0.249609,
2012-05-22, 02:28:04,VALID,1001.92,VALID,0,VALID,84.4288,VALID,0,VALID,26.0966,VALID,19,VALID,0.0164062,
2012-05-22, 02:29:04,VALID,1001.95,VALID,0,VALID,84.2381,VALID,0.0815089,VALID,26.0966,VALID,51,VALID,0.0984375,
2012-05-22, 02:30:04,VALID,1001.98,VALID,0,VALID,84.3449,VALID,0,VALID,26.118,VALID,51,VALID,0,
2012-05-22, 02:31:04,VALID,1002.03,VALID,0,VALID,84.4212,VALID,0,VALID,26.116,VALID,51,VALID,0.316406,
2012-05-22, 02:32:04,VALID,1002.1,VALID,0,VALID,84.4364,VALID,0.0815089,VALID,26.1375,VALID,51,VALID,0,
2012-05-22, 02:33:04,VALID,1002.11,VALID,0,VALID,84.3907,VALID,0,VALID,26.116,VALID,51,VALID,0,
2012-05-22, 02:34:04,VALID,1002.14,VALID,0,VALID,84.116,VALID,0.0815089,VALID,26.1375,VALID,51,VALID,0.0253906,
2012-05-22, 02:35:04,VALID,1002.19,VALID,0,VALID,84.2381,VALID,0.0815089,VALID,26.1355,VALID,51,VALID,0,
2012-05-22, 02:36:04,VALID,1002.22,VALID,0,VALID,84.1084,VALID,0.0815089,VALID,26.1355,VALID,51,VALID,0,
2012-05-22, 02:37:04,VALID,1002.25,VALID,0,VALID,84.5204,VALID,0,VALID,26.1355,VALID,51,VALID,0,
2012-05-22, 02:38:04,VALID,1002.26,VALID,0,VALID,84.5356,VALID,0.0815089,VALID,26.116,VALID,51,VALID,0,
2012-05-22, 02:39:04,VALID,1002.27,VALID,0,VALID,84.6043,VALID,0,VALID,26.1395,VALID,51,VALID,0,
2012-05-22, 02:40:04,VALID,1002.26,VALID,0,VALID,84.6882,VALID,0,VALID,26.0985,VALID,51,VALID,0,
2012-05-22, 02:41:04,VALID,1002.31,VALID,0,VALID,84.4899,VALID,0,VALID,26.0985,VALID,51,VALID,0,
2012-05-22, 02:42:04,VALID,1002.32,VALID,0,VALID,84.7111,VALID,0,VALID,26.0985,VALID,51,VALID,0.0265625,
2012-05-22, 02:43:04,VALID,1002.3,VALID,0,VALID,85.3519,VALID,0,VALID,26.1005,VALID,51,VALID,0,
2012-05-22, 02:44:04,VALID,1002.31,VALID,0,VALID,85.5426,VALID,0,VALID,26.0985,VALID,51,VALID,0,
2012-05-22, 02:45:04,VALID,1002.33,VALID,0,VALID,86.0233,VALID,0,VALID,26.0616,VALID,51,VALID,0.270703,
2012-05-22, 02:46:04,VALID,1002.3,VALID,0,VALID,86.2903,VALID,0,VALID,25.9622,VALID,51,VALID,0.319531,
2012-05-22, 02:47:04,VALID,1002.31,VALID,0,VALID,86.9158,VALID,0,VALID,25.9038,VALID,51,VALID,0.161328,
2012-05-22, 02:48:04,VALID,1002.32,VALID,0,VALID,87.2591,VALID,0,VALID,25.8259,VALID,51,VALID,0.377344,
2012-05-22, 02:49:04,VALID,1002.32,VALID,0,VALID,87.8313,VALID,0,VALID,25.8083,VALID,51,VALID,0.213672,
2012-05-22, 02:50:04,VALID,1002.28,VALID,0,VALID,87.7932,VALID,0,VALID,25.7694,VALID,51,VALID,0.468359,
2012-05-22, 02:51:04,VALID,1002.26,VALID,0,VALID,88.4645,VALID,0,VALID,25.7285,VALID,51,VALID,0.433984,
2012-05-22, 02:52:04,VALID,1002.26,VALID,0,VALID,88.8078,VALID,0,VALID,25.7109,VALID,51,VALID,0.298828,
2012-05-22, 02:53:04,VALID,1002.23,VALID,0,VALID,88.701,VALID,0,VALID,25.6506,VALID,51,VALID,0.353906,
2012-05-22, 02:54:04,VALID,1002.2,VALID,0,VALID,88.5713,VALID,0.0815089,VALID,25.6097,VALID,51,VALID,0.427734,
2012-05-22, 02:55:04,VALID,1002.18,VALID,0,VALID,88.6552,VALID,0,VALID,25.5902,VALID,51,VALID,0.484766,
2012-05-22, 02:56:04,VALID,1002.17,VALID,0,VALID,88.8078,VALID,0,VALID,25.5318,VALID,51,VALID,0.48125,
2012-05-22, 02:57:04,VALID,1002.18,VALID,0,VALID,89.1282,VALID,0,VALID,25.4948,VALID,51,VALID,0.437891,
2012-05-22, 02:58:04,VALID,1002.15,VALID,0,VALID,89.5249,VALID,0.0815089,VALID,25.4753,VALID,51,VALID,0.394922,
2012-05-22, 02:59:04,VALID,1002.16,VALID,0,VALID,89.7767,VALID,0.0815089,VALID,25.4149,VALID,136,VALID,0.802344,
2012-05-22, 03:00:04,VALID,1002.18,VALID,0,VALID,89.8835,VALID,0,VALID,25.4344,VALID,121,VALID,0.883984,
2012-05-22, 03:01:04,VALID,1002.16,VALID,0,VALID,89.8301,VALID,0.0815089,VALID,25.4734,VALID,141,VALID,0.954687,
2012-05-22, 03:02:04,VALID,1002.17,VALID,0,VALID,89.4105,VALID,0,VALID,25.5318,VALID,155,VALID,2.24453,
2012-05-22, 03:03:04,VALID,1002.15,VALID,0,VALID,89.2274,VALID,0,VALID,25.6292,VALID,158,VALID,3.45508,
2012-05-22, 03:04:04,VALID,1002.14,VALID,0,VALID,88.6857,VALID,0,VALID,25.748,VALID,134,VALID,3.08477,
2012-05-22, 03:05:04,VALID,1002.17,VALID,0,VALID,88.8002,VALID,0,VALID,25.8064,VALID,139,VALID,1.51953,
2012-05-22, 03:06:04,VALID,1002.14,VALID,0,VALID,88.5866,VALID,0,VALID,25.8259,VALID,141,VALID,2.12227,
2012-05-22, 03:07:04,VALID,1002.16,VALID,0,VALID,88.5255,VALID,0,VALID,25.8434,VALID,147,VALID,2.61719,
2012-05-22, 03:08:04,VALID,1002.19,VALID,0,VALID,88.3043,VALID,0.0815089,VALID,25.8629,VALID,156,VALID,2.64219,
2012-05-22, 03:09:04,VALID,1002.21,VALID,0,VALID,88.3806,VALID,0,VALID,25.9232,VALID,133,VALID,1.80352,
2012-05-22, 03:10:04,VALID,1002.19,VALID,0,VALID,88.434,VALID,0,VALID,25.9427,VALID,91,VALID,1.51094,
2012-05-22, 03:11:04,VALID,1002.18,VALID,0,VALID,87.5795,VALID,0,VALID,25.9232,VALID,130,VALID,3.21523,
2012-05-22, 03:12:04,VALID,1002.16,VALID,0,VALID,87.2744,VALID,0,VALID,25.9038,VALID,148,VALID,2.75273,
2012-05-22, 03:13:04,VALID,1002.19,VALID,0,VALID,87.6024,VALID,0,VALID,25.9018,VALID,136,VALID,2.33477,
2012-05-22, 03:14:04,VALID,1002.16,VALID,0,VALID,87.4117,VALID,0,VALID,25.9038,VALID,150,VALID,2.61602,
2012-05-22, 03:15:04,VALID,1002.12,VALID,0,VALID,86.7022,VALID,0,VALID,25.8843,VALID,140,VALID,2.30547,
2012-05-22, 03:16:04,VALID,1002.14,VALID,0,VALID,86.748,VALID,0,VALID,25.8668,VALID,161,VALID,2.97539,
2012-05-22, 03:17:04,VALID,1002.1,VALID,0,VALID,87.0455,VALID,0,VALID,25.8259,VALID,147,VALID,2.06602,
2012-05-22, 03:18:04,VALID,1002.12,VALID,0,VALID,87.0837,VALID,0,VALID,25.8259,VALID,142,VALID,3.83437,
2012-05-22, 03:19:04,VALID,1002.08,VALID,0,VALID,86.8319,VALID,0,VALID,25.8259,VALID,140,VALID,3.7625,
2012-05-22, 03:20:04,VALID,1002.13,VALID,0,VALID,87.0913,VALID,0,VALID,25.8473,VALID,139,VALID,1.87969,
2012-05-22, 03:21:04,VALID,1002.12,VALID,0,VALID,87.2744,VALID,0,VALID,25.8064,VALID,113,VALID,1.71914,
2012-05-22, 03:22:04,VALID,1002.17,VALID,0,VALID,87.5185,VALID,0,VALID,25.8064,VALID,120,VALID,2.20195,
2012-05-22, 03:23:04,VALID,1002.15,VALID,0,VALID,87.6177,VALID,0,VALID,25.8064,VALID,142,VALID,1.80039,
2012-05-22, 03:24:04,VALID,1002.16,VALID,0,VALID,87.7855,VALID,0,VALID,25.8064,VALID,134,VALID,1.35312,
2012-05-22, 03:25:04,VALID,1002.2,VALID,0,VALID,87.7169,VALID,0,VALID,25.7869,VALID,103,VALID,2.18125,
2012-05-22, 03:26:04,VALID,1002.2,VALID,0,VALID,87.6329,VALID,0,VALID,25.8064,VALID,136,VALID,2.02266,
2012-05-22, 03:27:04,VALID,1002.16,VALID,0,VALID,87.9152,VALID,0,VALID,25.8259,VALID,136,VALID,1.54648,
2012-05-22, 03:28:04,VALID,1002.16,VALID,0,VALID,88.1899,VALID,0,VALID,25.8064,VALID,154,VALID,1.18672,
2012-05-22, 03:29:04,VALID,1002.19,VALID,0,VALID,88.9451,VALID,0,VALID,25.7499,VALID,123,VALID,3.32891,
2012-05-22, 03:30:04,VALID,1002.18,VALID,0.5,VALID,89.5325,VALID,0,VALID,25.6311,VALID,169,VALID,3.47852,
2012-05-22, 03:31:04,VALID,1002.17,VALID,0.5,VALID,90.4327,VALID,0,VALID,25.5162,VALID,136,VALID,2.09141,
2012-05-22, 03:32:04,VALID,1002.14,VALID,0.5,VALID,90.2268,VALID,0,VALID,25.3195,VALID,133,VALID,5.25469,
2012-05-22, 03:33:04,VALID,1002.06,VALID,0.5,VALID,90.7913,VALID,0,VALID,25.1442,VALID,117,VALID,4.94766,
2012-05-22, 03:34:04,VALID,1002.07,VALID,0,VALID,91.5466,VALID,0,VALID,25.0274,VALID,109,VALID,3.78008,
2012-05-22, 03:35:04,VALID,1002.12,VALID,0.5,VALID,91.9356,VALID,0,VALID,24.9709,VALID,119,VALID,5.32852,
2012-05-22, 03:36:04,VALID,1002.09,VALID,0,VALID,92.5231,VALID,0,VALID,24.9495,VALID,120,VALID,3.52187,
2012-05-22, 03:37:04,VALID,1002.11,VALID,0,VALID,92.6985,VALID,0,VALID,24.8911,VALID,115,VALID,3.49727,
2012-05-22, 03:38:04,VALID,1002.12,VALID,0,VALID,92.935,VALID,0,VALID,24.8716,VALID,118,VALID,2.29688,
2012-05-22, 03:39:04,VALID,1002.19,VALID,0.5,VALID,93.1105,VALID,0,VALID,24.8522,VALID,130,VALID,4.71719,
2012-05-22, 03:40:04,VALID,1002.14,VALID,0,VALID,93.1791,VALID,0,VALID,24.8522,VALID,138,VALID,3.04453,
2012-05-22, 03:41:04,VALID,1002.19,VALID,0.5,VALID,93.2478,VALID,0,VALID,24.8327,VALID,121,VALID,3.21289,
2012-05-22, 03:42:04,VALID,1002.2,VALID,0.5,VALID,93.2631,VALID,0,VALID,24.854,VALID,151,VALID,4.62422,
2012-05-22, 03:43:04,VALID,1002.21,VALID,0,VALID,93.3317,VALID,0,VALID,24.8132,VALID,122,VALID,3.7375,